[[{"header":{"parameterUnit":"m.s-1","parameterCategory":2,"la1":30.2991,"la2":30.254,"lo1":-89.0895,"lo2":-89.0444,"dy":0.0017,"dx":0.0017,"nx":28,"ny":28,"refTime":"2025-09-19T09:00:00:Z","depth":"0","parameterNumber":2,"parameterNumberName":"U-component_of_CURRENTS"},"data":[0,0,0,0,0,0,0,0,0,0,0,0,0,0,0,0,0,0,0,0,0,0,0,0,0,0,0,0,0,0,0,0,0,0,0,0,0,0,0,0,0,0,0,0,0,0,0,0,0,0,0,0,0,0,0,0,0,0,-0.2104,-0.2104,0,-0.213,-0.2131,-0.2131,-0.2123,-0.2122,-0.2121,-0.2121,-0.2095,-0.2095,-0.2095,0,0,0,0,0,0,0,0,0,0,0,0,0,-0.2079,-0.2079,-0.2104,-0.2104,-0.2104,-0.213,-0.2131,-0.2131,-0.2123,-0.2122,-0.2121,-0.212,-0.2095,-0.2095,-0.2095,0,0,0,0,0,0,0,0,0,0,0,0,0,-0.2097,-0.2079,-0.2104,-0.2102,-0.2102,-0.213,-0.2131,-0.2132,-0.2123,-0.2122,-0.2121,-0.212,-0.2095,-0.2095,-0.2095,-0.2118,0,0,-0.2095,-0.2095,0,0,0,0,0,0,0,0,-0.2096,-0.2099,-0.2102,-0.2102,-0.2102,-0.2121,-0.2112,-0.2124,-0.2123,-0.2117,-0.2121,-0.2119,-0.2098,-0.2098,-0.2109,-0.2116,-0.2115,-0.2095,-0.2095,-0.2095,-0.2095,0,0,0,0,0,0,0,-0.2095,-0.2098,-0.2116,-0.2102,-0.2102,-0.211,-0.2112,-0.2115,-0.2114,-0.2118,-0.2117,-0.2117,-0.2098,-0.2109,-0.2108,-0.2115,-0.2095,-0.2095,-0.2095,-0.2095,-0.2138,-0.2139,0,0,0,0,0,0,-0.2088,-0.2096,-0.2116,-0.2117,-0.2094,-0.2112,-0.2113,-0.2117,-0.2115,-0.2114,-0.2118,-0.2116,-0.211,-0.2108,-0.2107,-0.2126,-0.2095,-0.2095,-0.2095,-0.2137,-0.2138,-0.2139,0,0,0,0,0,0,-0.2087,-0.2089,-0.2115,-0.2105,-0.2109,-0.2113,-0.2118,-0.2118,-0.2126,-0.2116,-0.2113,-0.2124,-0.2109,-0.2107,-0.2123,-0.2125,-0.2095,-0.2095,-0.2135,-0.2137,-0.2139,-0.2169,0,0,0,0,0,0,-0.2086,-0.2089,-0.2089,-0.2105,-0.2109,-0.2138,-0.2119,-0.212,-0.2127,-0.2126,-0.212,-0.2117,-0.2108,-0.2123,-0.2123,-0.2125,-0.2095,-0.2134,-0.2136,-0.2138,-0.2166,-0.2171,-0.2175,0,0,0,0,0,-0.2086,-0.2097,-0.209,-0.2092,-0.211,-0.2138,-0.2142,-0.2142,-0.2128,-0.2143,-0.2142,-0.2117,-0.2136,-0.2125,-0.2124,-0.2126,-0.2133,-0.2136,-0.2138,-0.2164,-0.217,-0.2175,0,0,0,0,0,0,-0.2082,-0.2098,-0.209,-0.2103,-0.2118,-0.2136,-0.2148,-0.2145,-0.2158,-0.2154,-0.2138,-0.2137,-0.2153,-0.2142,-0.213,-0.2146,-0.2127,-0.213,-0.2148,-0.2153,-0.2158,-0.2175,-0.2095,0,0,0,0,0,-0.2081,-0.2097,-0.2109,-0.212,-0.2128,-0.2137,-0.2146,-0.215,-0.2162,-0.2166,-0.2162,-0.2159,-0.2165,-0.216,-0.2169,-0.2178,-0.2172,-0.2178,-0.2183,-0.2186,-0.2202,-0.2211,-0.2218,-0.2148,-0.2148,-0.2148,0,0,-0.2084,-0.2093,-0.2101,-0.2121,-0.2132,-0.2153,-0.2141,-0.2164,-0.2177,-0.2161,-0.218,-0.2181,-0.2175,-0.2191,-0.2195,-0.2178,-0.22,-0.219,-0.2193,-0.2207,-0.2214,-0.2221,-0.2227,-0.2149,-0.2149,-0.2149,0,0,-0.2102,-0.2105,-0.2124,-0.2141,-0.2161,-0.217,-0.2175,-0.2196,-0.2201,-0.2223,-0.2215,-0.2234,-0.2227,-0.2238,-0.2236,-0.2275,-0.2232,-0.2254,-0.228,-0.2288,-0.2294,-0.2299,-0.2281,-0.2284,-0.2246,-0.2246,-0.2246,0,-0.2101,-0.2122,-0.2135,-0.2158,-0.217,-0.2176,-0.2198,-0.2212,-0.2234,-0.2241,-0.2232,-0.2256,-0.2258,-0.2277,-0.2291,-0.2286,-0.2265,-0.2255,-0.2293,-0.2299,-0.2303,-0.2283,-0.2287,-0.2248,-0.2248,-0.2247,-0.2247,0,-0.2133,-0.2149,-0.2166,-0.2192,-0.221,-0.2235,-0.225,-0.2267,-0.2267,-0.2276,-0.2301,-0.2318,-0.2327,-0.2327,-0.232,-0.2347,-0.2312,-0.2304,-0.2277,-0.2312,-0.2289,-0.2291,-0.225,-0.225,-0.2249,-0.2249,0,0,-0.2128,-0.2178,-0.2181,-0.2194,-0.2229,-0.2245,-0.2273,-0.2296,-0.2303,-0.233,-0.234,-0.2378,-0.238,-0.2382,-0.2375,-0.2387,-0.2404,-0.2354,-0.2353,-0.2331,-0.2389,-0.2261,-0.2251,-0.2385,-0.2387,-0.2388,-0.2352,0,-0.2145,-0.2188,-0.221,-0.2244,-0.2264,-0.2282,-0.2302,-0.2324,-0.2334,-0.2347,-0.2372,-0.2384,-0.2397,-0.2393,-0.2416,-0.2406,-0.2415,-0.2413,-0.2364,-0.2363,-0.2241,-0.2253,-0.207,-0.2014,-0.2355,-0.2355,-0.2355,0,-0.2162,-0.2187,-0.2226,-0.2259,-0.2268,-0.2287,-0.2308,-0.2328,-0.2354,-0.236,-0.2387,-0.2392,-0.2427,-0.2426,-0.2447,-0.2433,-0.2424,-0.2419,-0.2417,-0.2293,-0.2241,-0.2039,-0.2005,-0.1876,-0.2359,-0.2359,-0.2359,0,-0.2143,-0.2193,-0.222,-0.2235,-0.2277,-0.2288,-0.2303,-0.233,-0.2336,-0.2363,-0.2363,-0.2403,-0.2402,-0.2425,-0.242,-0.2426,-0.2419,-0.2425,-0.2308,-0.2298,-0.2134,-0.2106,-0.1967,-0.2452,-0.2452,-0.2452,-0.2452,0,-0.2148,-0.2162,-0.2211,-0.2224,-0.2235,-0.2273,-0.228,-0.23,-0.2323,-0.2314,-0.2363,-0.235,-0.2399,-0.2394,-0.2409,-0.2347,-0.2411,-0.2315,-0.2284,-0.2135,-0.211,-0.1983,-0.1981,-0.2451,-0.2451,-0.2451,-0.2452,0,-0.2112,-0.2155,-0.2177,-0.222,-0.2226,-0.223,-0.2249,-0.2247,-0.2284,-0.2271,-0.2276,-0.2301,-0.2272,-0.2302,-0.231,-0.2299,-0.2196,-0.2245,-0.205,-0.1996,-0.1753,-0.1761,-0.1736,-0.1705,-0.2108,-0.2104,-0.2101,0,-0.2096,-0.2107,-0.2151,-0.2147,-0.216,-0.2171,-0.2165,-0.2212,-0.2207,-0.2222,-0.2202,-0.2183,-0.2119,-0.2081,-0.2041,-0.201,-0.2041,-0.1856,-0.1855,-0.1704,-0.1693,-0.1791,-0.1776,-0.1647,-0.1641,-0.1636,-0.1632,0,-0.2035,-0.2056,-0.2068,-0.2054,-0.2053,-0.2053,-0.2054,-0.2046,-0.2082,-0.2078,-0.202,-0.1969,-0.189,-0.1735,-0.1697,-0.1686,-0.1735,-0.1746,-0.1646,-0.1365,-0.141,-0.1373,-0.1701,-0.1586,-0.159,-0.1594,-0.1596,-0.1598,-0.1958,-0.1944,-0.1941,-0.1916,-0.1918,-0.188,-0.1814,-0.1844,-0.1807,-0.1745,-0.1798,-0.1674,-0.1515,-0.1394,-0.1351,-0.1153,-0.1383,-0.1118,-0.1154,-0.128,-0.1205,-0.1416,-0.1232,-0.1235,-0.1237,-0.1239,-0.124,0,-0.1813,-0.1794,-0.1782,-0.1727,-0.1653,-0.1707,-0.1677,-0.1597,-0.1501,-0.1527,-0.1458,-0.1244,-0.102,-0.0904,-0.0668,-0.0568,-0.0655,-0.0569,-0.0644,-0.0673,-0.0855,-0.078,-0.0419,-0.0419,-0.0419,-0.0419,-0.042,-0.042,-0.1722,-0.1639,-0.1631,-0.1445,-0.1405,-0.1249,-0.1192,-0.115,-0.114,-0.1021,-0.093,-0.0887,-0.0657,-0.0336,-0.0101,-0.0113,-0.018,-0.0187,-0.031,-0.0357,-0.0412,-0.0464,-0.0387,0.005,0.005,-0.0081,-0.0081,-0.0081]},{"header":{"parameterUnit":"m.s-1","parameterCategory":2,"la1":30.2991,"la2":30.254,"lo1":-89.0895,"lo2":-89.0444,"dy":0.0017,"dx":0.0017,"nx":28,"ny":28,"refTime":"2025-09-19T09:00:00:Z","depth":"0","parameterNumber":3,"parameterNumberName":"V-component_of_CURRENTS"},"data":[0,0,0,0,0,0,0,0,0,0,0,0,0,0,0,0,0,0,0,0,0,0,0,0,0,0,0,0,0,0,0,0,0,0,0,0,0,0,0,0,0,0,0,0,0,0,0,0,0,0,0,0,0,0,0,0,0,0,-0.1292,-0.1291,0,-0.1205,-0.1204,-0.1204,-0.1156,-0.1156,-0.1155,-0.1155,-0.102,-0.1017,-0.1013,0,0,0,0,0,0,0,0,0,0,0,0,0,-0.1377,-0.1376,-0.1292,-0.129,-0.1289,-0.1206,-0.1204,-0.1203,-0.1156,-0.1156,-0.1155,-0.1155,-0.1021,-0.1017,-0.1013,0,0,0,0,0,0,0,0,0,0,0,0,0,-0.1321,-0.1376,-0.1292,-0.1255,-0.1251,-0.1206,-0.1204,-0.1203,-0.1156,-0.1156,-0.1155,-0.1155,-0.1022,-0.1017,-0.1012,-0.0987,0,0,-0.0997,-0.0994,0,0,0,0,0,0,0,0,-0.1325,-0.1318,-0.1262,-0.1258,-0.1253,-0.119,-0.1185,-0.1128,-0.1156,-0.1193,-0.1155,-0.1155,-0.1072,-0.1063,-0.1049,-0.098,-0.0974,-0.0996,-0.0993,-0.0991,-0.0989,0,0,0,0,0,0,0,-0.1329,-0.1322,-0.1258,-0.126,-0.1255,-0.123,-0.1222,-0.1174,-0.1135,-0.1189,-0.1186,-0.1175,-0.1069,-0.1054,-0.1045,-0.0972,-0.0996,-0.0992,-0.0989,-0.0987,-0.0839,-0.0838,0,0,0,0,0,0,-0.134,-0.1325,-0.1261,-0.1256,-0.1288,-0.1229,-0.122,-0.1211,-0.1136,-0.1125,-0.1175,-0.1173,-0.1063,-0.1051,-0.104,-0.0994,-0.0991,-0.0986,-0.0983,-0.084,-0.0839,-0.0838,0,0,0,0,0,0,-0.1342,-0.1335,-0.1264,-0.1288,-0.1277,-0.1228,-0.1218,-0.121,-0.1195,-0.1126,-0.1113,-0.117,-0.1062,-0.1047,-0.1004,-0.0989,-0.0984,-0.0979,-0.0841,-0.084,-0.0839,-0.0909,0,0,0,0,0,0,-0.1345,-0.1337,-0.1338,-0.1289,-0.1276,-0.1247,-0.1218,-0.1208,-0.1189,-0.1185,-0.1117,-0.1104,-0.1061,-0.1012,-0.0999,-0.0982,-0.0975,-0.0842,-0.084,-0.0839,-0.0908,-0.091,-0.0912,0,0,0,0,0,-0.1349,-0.1359,-0.1339,-0.1331,-0.1279,-0.1247,-0.1239,-0.1203,-0.1189,-0.1189,-0.1142,-0.1106,-0.0991,-0.1008,-0.0992,-0.0974,-0.0843,-0.0841,-0.0839,-0.0907,-0.091,-0.0912,0,0,0,0,0,0,-0.1395,-0.1353,-0.133,-0.1326,-0.1291,-0.1239,-0.1234,-0.1209,-0.1172,-0.1167,-0.1105,-0.1089,-0.1041,-0.0998,-0.1017,-0.0924,-0.0907,-0.0902,-0.0963,-0.0966,-0.0968,-0.0986,-0.0971,0,0,0,0,0,-0.1405,-0.1405,-0.1353,-0.135,-0.1332,-0.1283,-0.1267,-0.1242,-0.12,-0.1184,-0.1135,-0.1076,-0.102,-0.0989,-0.0936,-0.0893,-0.0876,-0.0866,-0.0868,-0.0871,-0.0873,-0.0834,-0.0834,-0.0832,-0.0832,-0.0832,0,0,-0.1421,-0.1399,-0.1397,-0.136,-0.1327,-0.1303,-0.1273,-0.1252,-0.1231,-0.1174,-0.1135,-0.1086,-0.1011,-0.0961,-0.0934,-0.0925,-0.0868,-0.0868,-0.0871,-0.0872,-0.0832,-0.0833,-0.0833,-0.0831,-0.0831,-0.0831,0,0,-0.1445,-0.143,-0.1428,-0.1402,-0.136,-0.1329,-0.1326,-0.1274,-0.1251,-0.1211,-0.1158,-0.1113,-0.1027,-0.0976,-0.0937,-0.092,-0.0884,-0.0888,-0.0913,-0.0876,-0.0876,-0.0876,-0.0891,-0.0892,-0.0887,-0.0887,-0.0887,0,-0.1462,-0.1448,-0.1424,-0.1407,-0.1386,-0.1343,-0.1325,-0.1296,-0.1239,-0.1217,-0.1206,-0.1085,-0.1034,-0.0964,-0.0958,-0.0927,-0.0914,-0.0915,-0.0882,-0.0882,-0.0881,-0.0895,-0.0895,-0.0891,-0.089,-0.089,-0.089,0,-0.1474,-0.1458,-0.1455,-0.1419,-0.1399,-0.1382,-0.1334,-0.1314,-0.1283,-0.1245,-0.1183,-0.1119,-0.1049,-0.1019,-0.0983,-0.0936,-0.0935,-0.0897,-0.0886,-0.0886,-0.0901,-0.09,-0.0895,-0.0894,-0.0893,-0.0892,0,0,-0.1517,-0.147,-0.1469,-0.1444,-0.1402,-0.1383,-0.1359,-0.1314,-0.1294,-0.1243,-0.1208,-0.1123,-0.1095,-0.1049,-0.0995,-0.0962,-0.0963,-0.0931,-0.0927,-0.0966,-0.0916,-0.0869,-0.0863,-0.0914,-0.0913,-0.0913,-0.0944,0,-0.1524,-0.1494,-0.1476,-0.1447,-0.1419,-0.1387,-0.1367,-0.1328,-0.1292,-0.1254,-0.119,-0.1135,-0.1102,-0.107,-0.1034,-0.0968,-0.0956,-0.096,-0.0891,-0.089,-0.0864,-0.0858,-0.0823,-0.0842,-0.0943,-0.0942,-0.0942,0,-0.1536,-0.151,-0.1479,-0.1439,-0.1427,-0.1414,-0.1376,-0.1352,-0.13,-0.1272,-0.1221,-0.1171,-0.1116,-0.1086,-0.1009,-0.1012,-0.0977,-0.0937,-0.0936,-0.0862,-0.0839,-0.0846,-0.0835,-0.0723,-0.094,-0.094,-0.0941,0,-0.1554,-0.1517,-0.149,-0.1474,-0.1424,-0.1416,-0.1399,-0.1357,-0.1329,-0.1284,-0.126,-0.1195,-0.1151,-0.1095,-0.1024,-0.1015,-0.0947,-0.0922,-0.0859,-0.0858,-0.0799,-0.0792,-0.0682,-0.0878,-0.0878,-0.0878,-0.0878,0,-0.1559,-0.1536,-0.1497,-0.1474,-0.1452,-0.1428,-0.1405,-0.1382,-0.1346,-0.1306,-0.1269,-0.1224,-0.1143,-0.109,-0.1041,-0.0951,-0.0965,-0.0868,-0.0849,-0.0824,-0.082,-0.0693,-0.0626,-0.0879,-0.0879,-0.0879,-0.0879,0,-0.1556,-0.1536,-0.1493,-0.1453,-0.1449,-0.143,-0.1402,-0.1377,-0.1361,-0.1312,-0.1298,-0.1239,-0.117,-0.1106,-0.1017,-0.096,-0.0814,-0.0857,-0.0861,-0.0839,-0.0657,-0.0595,-0.0491,-0.0421,-0.0797,-0.0796,-0.0795,0,-0.1537,-0.1517,-0.1474,-0.1451,-0.1428,-0.1407,-0.1386,-0.1376,-0.1348,-0.1309,-0.1277,-0.1219,-0.1164,-0.1047,-0.0937,-0.0861,-0.0764,-0.0769,-0.0726,-0.0638,-0.0555,-0.0546,-0.0493,-0.0705,-0.0704,-0.0702,-0.0701,0,-0.1484,-0.1476,-0.1432,-0.1392,-0.1369,-0.1348,-0.1327,-0.1319,-0.1298,-0.1286,-0.1251,-0.1222,-0.1106,-0.1,-0.0885,-0.0806,-0.0659,-0.0736,-0.0626,-0.0451,-0.0451,-0.0378,-0.0736,-0.0689,-0.069,-0.0691,-0.0692,-0.0692,-0.1431,-0.1388,-0.1338,-0.1299,-0.1278,-0.126,-0.1235,-0.1248,-0.1233,-0.1217,-0.1223,-0.1159,-0.1042,-0.0868,-0.0775,-0.0523,-0.0548,-0.045,-0.0387,-0.0392,-0.0288,-0.0638,-0.0563,-0.0564,-0.0564,-0.0564,-0.0565,0,-0.1336,-0.1292,-0.1246,-0.1183,-0.1137,-0.1164,-0.1156,-0.1146,-0.1141,-0.1165,-0.117,-0.097,-0.0859,-0.0673,-0.0404,-0.0228,-0.0183,-0.0119,-0.009,-0.0054,-0.0347,-0.0304,-0.019,-0.019,-0.019,-0.019,-0.0191,-0.0191,-0.1275,-0.1191,-0.1161,-0.1044,-0.1013,-0.0951,-0.0942,-0.0981,-0.0996,-0.0946,-0.0823,-0.0736,-0.0394,-0.0253,0.0027,0.0089,0.0236,0.0239,0.0309,0.0123,0.0096,0.0071,0.0128,0.033,0.0331,0.0567,0.057,0.0572]}],[{"header":{"parameterUnit":"m.s-1","parameterCategory":2,"la1":30.2991,"la2":30.254,"lo1":-89.0895,"lo2":-89.0444,"dy":0.0017,"dx":0.0017,"nx":28,"ny":28,"refTime":"2025-09-19T09:00:00:Z","depth":"2","parameterNumber":2,"parameterNumberName":"U-component_of_CURRENTS"},"data":[0,0,0,0,0,0,0,0,0,0,0,0,0,0,0,0,0,0,0,0,0,0,0,0,0,0,0,0,0,0,0,0,0,0,0,0,0,0,0,0,0,0,0,0,0,0,0,0,0,0,0,0,0,0,0,0,0,0,-0.1554,-0.1554,0,-0.1565,-0.1565,-0.1565,-0.158,-0.158,-0.158,-0.158,-0.1595,-0.1595,-0.1595,0,0,0,0,0,0,0,0,0,0,0,0,0,-0.1501,-0.1502,-0.1554,-0.1554,-0.1555,-0.1565,-0.1565,-0.1565,-0.1579,-0.158,-0.158,-0.158,-0.1595,-0.1595,-0.1596,0,0,0,0,0,0,0,0,0,0,0,0,0,-0.1519,-0.1502,-0.1554,-0.1563,-0.1564,-0.1565,-0.1565,-0.1565,-0.1579,-0.158,-0.158,-0.1581,-0.1595,-0.1595,-0.1596,-0.1588,0,0,-0.1596,-0.1596,0,0,0,0,0,0,0,0,-0.1518,-0.1521,-0.1562,-0.1563,-0.1564,-0.1572,-0.1552,-0.1573,-0.1579,-0.1573,-0.158,-0.1581,-0.1588,-0.1589,-0.1589,-0.1589,-0.1589,-0.1596,-0.1596,-0.1596,-0.1596,0,0,0,0,0,0,0,-0.1516,-0.152,-0.1558,-0.1562,-0.1563,-0.1552,-0.1555,-0.1556,-0.1577,-0.1574,-0.1575,-0.1577,-0.1588,-0.1589,-0.1589,-0.159,-0.1596,-0.1596,-0.1596,-0.1596,-0.1667,-0.1669,0,0,0,0,0,0,-0.1518,-0.1519,-0.1558,-0.1558,-0.1542,-0.1553,-0.1556,-0.1568,-0.1577,-0.1579,-0.1577,-0.1578,-0.1588,-0.1589,-0.159,-0.1642,-0.1596,-0.1597,-0.1597,-0.1666,-0.1668,-0.167,0,0,0,0,0,0,-0.1517,-0.1522,-0.1557,-0.1539,-0.1542,-0.1553,-0.1567,-0.1568,-0.1585,-0.158,-0.1582,-0.1593,-0.1588,-0.159,-0.1613,-0.1641,-0.1597,-0.1597,-0.1664,-0.1666,-0.1669,-0.1708,0,0,0,0,0,0,-0.1516,-0.1522,-0.154,-0.1539,-0.1544,-0.1564,-0.1566,-0.1568,-0.1585,-0.1587,-0.1594,-0.1595,-0.1589,-0.1613,-0.1614,-0.164,-0.1597,-0.1661,-0.1665,-0.1668,-0.1705,-0.1712,-0.1718,0,0,0,0,0,-0.1514,-0.1521,-0.1541,-0.1546,-0.1566,-0.1564,-0.1565,-0.1573,-0.1585,-0.159,-0.1608,-0.1596,-0.1635,-0.1615,-0.1615,-0.1642,-0.166,-0.1664,-0.1668,-0.1702,-0.171,-0.1718,0,0,0,0,0,0,-0.1511,-0.1523,-0.1545,-0.156,-0.1571,-0.1567,-0.1574,-0.1583,-0.16,-0.1613,-0.1609,-0.1611,-0.1635,-0.1641,-0.1618,-0.1676,-0.1649,-0.1653,-0.1675,-0.1683,-0.169,-0.1681,-0.1597,0,0,0,0,0,-0.1521,-0.1534,-0.1544,-0.1563,-0.1567,-0.1578,-0.1584,-0.1594,-0.1603,-0.1612,-0.1624,-0.1643,-0.1649,-0.1668,-0.1667,-0.1703,-0.168,-0.1726,-0.1733,-0.1738,-0.1734,-0.1718,-0.1721,-0.1683,-0.1683,-0.1683,0,0,-0.1531,-0.1538,-0.155,-0.1565,-0.1575,-0.1588,-0.1583,-0.1596,-0.1615,-0.1611,-0.1649,-0.1653,-0.1658,-0.1689,-0.1704,-0.1704,-0.1741,-0.1743,-0.1748,-0.174,-0.1722,-0.1725,-0.1728,-0.1685,-0.1685,-0.1684,0,0,-0.1537,-0.1561,-0.1568,-0.1578,-0.1596,-0.1604,-0.1613,-0.1629,-0.1641,-0.1679,-0.1675,-0.1698,-0.1731,-0.1733,-0.1738,-0.1785,-0.176,-0.1803,-0.1848,-0.1832,-0.1834,-0.1836,-0.182,-0.1819,-0.1827,-0.1827,-0.1827,0,-0.1555,-0.1572,-0.157,-0.1579,-0.1604,-0.1615,-0.1641,-0.1644,-0.1673,-0.1688,-0.1701,-0.1746,-0.1746,-0.177,-0.1794,-0.1796,-0.1787,-0.1813,-0.1838,-0.1839,-0.184,-0.1822,-0.1821,-0.1829,-0.1829,-0.1829,-0.1828,0,-0.1565,-0.1588,-0.1591,-0.162,-0.1638,-0.1663,-0.1675,-0.1695,-0.1728,-0.1743,-0.1779,-0.1789,-0.1819,-0.1831,-0.183,-0.185,-0.1841,-0.1827,-0.1809,-0.1845,-0.1826,-0.1824,-0.1833,-0.1832,-0.1831,-0.183,0,0,-0.1596,-0.1601,-0.1611,-0.1637,-0.1673,-0.169,-0.1715,-0.1745,-0.1762,-0.1803,-0.1832,-0.1861,-0.1873,-0.188,-0.1884,-0.1888,-0.1888,-0.1879,-0.1877,-0.1848,-0.186,-0.1747,-0.1734,-0.1884,-0.1884,-0.1883,-0.1846,0,-0.1623,-0.1632,-0.165,-0.1704,-0.1713,-0.1748,-0.177,-0.1797,-0.1818,-0.1839,-0.1855,-0.1878,-0.1888,-0.1911,-0.1916,-0.1877,-0.1886,-0.19,-0.1842,-0.184,-0.1722,-0.1728,-0.1524,-0.1463,-0.1844,-0.1843,-0.1843,0,-0.1649,-0.1643,-0.1676,-0.1732,-0.1749,-0.1797,-0.1849,-0.1869,-0.1877,-0.1895,-0.1924,-0.192,-0.1931,-0.1932,-0.1906,-0.1919,-0.1901,-0.1878,-0.1876,-0.175,-0.1722,-0.1489,-0.1445,-0.184,-0.184,-0.184,-0.184,0,-0.1657,-0.1693,-0.1721,-0.174,-0.1778,-0.1829,-0.1874,-0.1894,-0.1901,-0.1925,-0.1927,-0.1946,-0.1936,-0.1929,-0.1875,-0.1902,-0.1821,-0.1846,-0.1732,-0.1724,-0.1524,-0.1498,-0.1831,-0.1831,-0.1831,-0.1831,-0.1831,0,-0.1686,-0.1725,-0.1729,-0.1746,-0.18,-0.184,-0.1903,-0.1931,-0.1947,-0.192,-0.1957,-0.1914,-0.1933,-0.188,-0.1867,-0.1766,-0.1812,-0.1725,-0.1699,-0.1534,-0.1511,-0.1818,-0.1817,-0.183,-0.183,-0.183,-0.1831,0,-0.1716,-0.1708,-0.1744,-0.1783,-0.1801,-0.1847,-0.1926,-0.1913,-0.1958,-0.1915,-0.1919,-0.1889,-0.1812,-0.1804,-0.1754,-0.1719,-0.1659,-0.1618,-0.1419,-0.137,-0.1588,-0.1591,-0.151,-0.1506,-0.1502,-0.1499,-0.1496,0,-0.1733,-0.1737,-0.1767,-0.1761,-0.1798,-0.1854,-0.1841,-0.1906,-0.188,-0.1854,-0.1797,-0.1747,-0.1632,-0.1532,-0.1471,-0.1418,-0.1531,-0.1214,-0.1226,-0.1568,-0.1553,-0.1561,-0.1568,-0.099,-0.0983,-0.0978,-0.0974,0,-0.1757,-0.1773,-0.1784,-0.174,-0.174,-0.1735,-0.175,-0.1728,-0.1725,-0.1697,-0.1569,-0.1486,-0.1369,-0.1181,-0.1133,-0.1087,-0.1211,-0.1102,-0.1481,-0.1102,-0.1073,-0.106,-0.1084,-0.0926,-0.093,-0.0934,-0.0936,-0.0938,-0.1771,-0.176,-0.1721,-0.1689,-0.1669,-0.1567,-0.1527,-0.1505,-0.1435,-0.1342,-0.1319,-0.1166,-0.1068,-0.0898,-0.0813,-0.078,-0.09,-0.0844,-0.0862,-0.0886,-0.0831,-0.0797,-0.0588,-0.059,-0.0593,-0.0595,-0.0597,0,-0.1685,-0.1654,-0.164,-0.1544,-0.1462,-0.1483,-0.1388,-0.1297,-0.1156,-0.1134,-0.104,-0.0803,-0.0622,-0.0601,-0.0442,-0.0397,-0.0436,-0.0388,-0.0415,-0.0457,-0.0496,-0.0427,-0.0074,-0.0074,-0.0073,-0.0073,0,0,-0.1614,-0.1531,-0.1486,-0.1301,-0.1259,-0.109,-0.0999,-0.0909,-0.088,-0.0767,-0.0713,-0.069,-0.0589,-0.0386,-0.027,-0.0159,-0.035,-0.0145,-0.0541,-0.0617,-0.0658,-0.07,-0.063,0,0,0,0,0]},{"header":{"parameterUnit":"m.s-1","parameterCategory":2,"la1":30.2991,"la2":30.254,"lo1":-89.0895,"lo2":-89.0444,"dy":0.0017,"dx":0.0017,"nx":28,"ny":28,"refTime":"2025-09-19T09:00:00:Z","depth":"2","parameterNumber":3,"parameterNumberName":"V-component_of_CURRENTS"},"data":[0,0,0,0,0,0,0,0,0,0,0,0,0,0,0,0,0,0,0,0,0,0,0,0,0,0,0,0,0,0,0,0,0,0,0,0,0,0,0,0,0,0,0,0,0,0,0,0,0,0,0,0,0,0,0,0,0,0,0.0351,0.0352,0,0.0476,0.0477,0.0479,0.0558,0.0558,0.0558,0.0559,0.0668,0.067,0.0672,0,0,0,0,0,0,0,0,0,0,0,0,0,0.0324,0.0323,0.0351,0.0352,0.0354,0.0475,0.0477,0.0479,0.0558,0.0558,0.0558,0.0559,0.0667,0.067,0.0673,0,0,0,0,0,0,0,0,0,0,0,0,0,0.0381,0.0323,0.035,0.0407,0.0413,0.0475,0.0477,0.048,0.0557,0.0558,0.0559,0.0559,0.0666,0.0669,0.0673,0.0685,0,0,0.0685,0.0686,0,0,0,0,0,0,0,0,0.0378,0.0382,0.0397,0.0403,0.041,0.0501,0.0508,0.0547,0.0557,0.0504,0.0559,0.0559,0.0609,0.0618,0.0641,0.069,0.0695,0.0685,0.0687,0.0689,0.069,0,0,0,0,0,0,0,0.0374,0.0378,0.0401,0.0399,0.0407,0.0476,0.0483,0.0517,0.0552,0.0508,0.0514,0.0527,0.0613,0.0638,0.0645,0.0697,0.0685,0.0688,0.0691,0.0692,0.0774,0.0774,0,0,0,0,0,0,0.0348,0.0373,0.0397,0.0405,0.0394,0.0475,0.0483,0.0472,0.0552,0.0565,0.0526,0.053,0.0631,0.064,0.0649,0.0669,0.0689,0.0693,0.0695,0.0774,0.0774,0.0774,0,0,0,0,0,0,0.0347,0.0348,0.0392,0.0393,0.0404,0.0473,0.0461,0.0474,0.0504,0.0566,0.0578,0.0543,0.0632,0.0643,0.0685,0.0674,0.0694,0.0698,0.0774,0.0774,0.0774,0.0709,0,0,0,0,0,0,0.0345,0.0346,0.0338,0.039,0.0402,0.0416,0.0461,0.0476,0.051,0.0517,0.0584,0.0595,0.0633,0.0679,0.0688,0.0679,0.0701,0.0774,0.0774,0.0774,0.0711,0.0706,0.0702,0,0,0,0,0,0.0343,0.0322,0.0336,0.034,0.0384,0.0416,0.0428,0.0482,0.051,0.0514,0.0569,0.0593,0.0684,0.0682,0.0693,0.0685,0.0774,0.0774,0.0774,0.0713,0.0707,0.0703,0,0,0,0,0,0,0.0324,0.0329,0.0346,0.0332,0.0367,0.0428,0.0441,0.0479,0.0527,0.0539,0.0598,0.0612,0.0639,0.0674,0.067,0.0708,0.073,0.0732,0.068,0.0675,0.0671,0.0655,0.0704,0,0,0,0,0,0.0309,0.0286,0.0319,0.0314,0.0321,0.0382,0.0406,0.0441,0.0489,0.0512,0.0561,0.0611,0.0646,0.067,0.0705,0.0731,0.0747,0.0732,0.0727,0.0723,0.0719,0.0746,0.0743,0.0773,0.0773,0.0773,0,0,0.0307,0.0305,0.0299,0.0308,0.0339,0.0348,0.0397,0.0424,0.044,0.0514,0.055,0.0596,0.0649,0.0676,0.0691,0.0705,0.0718,0.0723,0.0719,0.0717,0.0745,0.0742,0.074,0.0772,0.0772,0.0773,0,0,0.028,0.028,0.0249,0.0266,0.0296,0.033,0.0332,0.0388,0.0413,0.0455,0.0507,0.0551,0.0611,0.0648,0.0673,0.0667,0.0691,0.0674,0.0645,0.0671,0.0669,0.0667,0.0657,0.0655,0.0676,0.0676,0.0676,0,0.0285,0.0243,0.0254,0.0237,0.0258,0.0313,0.0313,0.034,0.0409,0.043,0.0454,0.0554,0.0597,0.0633,0.0632,0.0656,0.0664,0.0659,0.0664,0.0663,0.0662,0.0653,0.0651,0.0673,0.0674,0.0674,0.0674,0,0.0236,0.0214,0.0201,0.019,0.0214,0.0222,0.0261,0.0283,0.0329,0.0372,0.0419,0.0486,0.0543,0.0563,0.0598,0.0613,0.0615,0.065,0.0673,0.0655,0.0646,0.0645,0.0669,0.067,0.0671,0.0672,0,0,0.0218,0.0173,0.0167,0.0155,0.0192,0.0202,0.022,0.0254,0.0264,0.033,0.0353,0.0424,0.0465,0.0496,0.0544,0.0577,0.0571,0.0606,0.0609,0.0586,0.0598,0.0524,0.0517,0.0607,0.0607,0.0607,0.0584,0,0.0184,0.011,0.0125,0.0106,0.0081,0.0145,0.0156,0.02,0.0245,0.0273,0.0345,0.0376,0.0434,0.0453,0.0496,0.0555,0.0571,0.0572,0.0628,0.0628,0.0558,0.0515,0.0608,0.0588,0.0583,0.0583,0.0583,0,0.0126,0.0084,0.0029,0.0035,0.0037,0.0045,0.0082,0.01,0.0155,0.019,0.0245,0.03,0.0349,0.0399,0.0482,0.0478,0.0524,0.0574,0.0575,0.053,0.0554,0.0613,0.0588,0.0583,0.0583,0.0583,0.0583,0,0.0059,0.0028,-0.0026,-0.0025,-0.0013,-0.0008,0.0012,0.0066,0.0074,0.0116,0.0134,0.0216,0.0234,0.0324,0.0412,0.0446,0.0493,0.0556,0.0529,0.0523,0.0624,0.0626,0.0601,0.0601,0.0601,0.0601,0.0601,0,-0.0002,-0.0044,-0.0075,-0.0107,-0.0149,-0.0092,-0.0111,-0.0081,-0.0032,-0.0022,0.0064,0.0089,0.0218,0.027,0.037,0.0419,0.0452,0.0501,0.051,0.0599,0.0599,0.0626,0.0629,0.06,0.0601,0.0601,0.0601,0,-0.0097,-0.0114,-0.0184,-0.0195,-0.0201,-0.0242,-0.022,-0.0218,-0.0167,-0.0155,-0.0149,-0.0035,0.0022,0.0129,0.0251,0.0332,0.0411,0.042,0.0484,0.05,0.0437,0.0438,0.0397,0.0394,0.0391,0.0389,0.0388,0,-0.0166,-0.0221,-0.0285,-0.0333,-0.035,-0.0388,-0.0395,-0.0325,-0.0308,-0.0219,-0.0212,-0.016,-0.0098,0.0016,0.0153,0.0258,0.03,0.0394,0.0479,0.0401,0.0416,0.042,0.0423,0.0591,0.0591,0.0591,0.0591,0,-0.03,-0.033,-0.0398,-0.0482,-0.0518,-0.0535,-0.0534,-0.0527,-0.042,-0.0384,-0.0297,-0.0238,-0.0138,0.004,0.0131,0.022,0.0385,0.0392,0.0322,0.0601,0.0576,0.0592,0.0592,0.0592,0.0592,0.0592,0.0592,0.0592,-0.0415,-0.0487,-0.0561,-0.0628,-0.0659,-0.0634,-0.063,-0.057,-0.0515,-0.0371,-0.0328,-0.0127,-0.0015,0.0205,0.0226,0.029,0.0306,0.0437,0.0442,0.0446,0.0445,0.0414,0.0399,0.0398,0.0397,0.0396,0.0395,0,-0.0544,-0.0596,-0.068,-0.0724,-0.0729,-0.0713,-0.0673,-0.0603,-0.05,-0.0336,-0.0216,0.0028,0.0223,0.0315,0.043,0.0431,0.047,0.0436,0.0555,0.0556,0.0557,0.0565,0.0549,0.0548,0.0547,0.0547,0,0,-0.0607,-0.0718,-0.0726,-0.0753,-0.0758,-0.0714,-0.0668,-0.0565,-0.042,-0.0235,-0.0006,0.0239,0.0367,0.0489,0.0484,0.0531,0.0515,0.0512,0.0408,0.055,0.0548,0.0596,0.0613,0,0,0,0,0]}],[{"header":{"parameterUnit":"m.s-1","parameterCategory":2,"la1":30.2991,"la2":30.254,"lo1":-89.0895,"lo2":-89.0444,"dy":0.0017,"dx":0.0017,"nx":28,"ny":28,"refTime":"2025-09-19T09:00:00:Z","depth":"4","parameterNumber":2,"parameterNumberName":"U-component_of_CURRENTS"},"data":[0,0,0,0,0,0,0,0,0,0,0,0,0,0,0,0,0,0,0,0,0,0,0,0,0,0,0,0,0,0,0,0,0,0,0,0,0,0,0,0,0,0,0,0,0,0,0,0,0,0,0,0,0,0,0,0,0,0,-0.0594,-0.0595,0,-0.064,-0.064,-0.0641,-0.0659,-0.0658,-0.0658,-0.0658,-0.0692,-0.0693,-0.0694,0,0,0,0,0,0,0,0,0,0,0,0,0,-0.0548,-0.0549,-0.0594,-0.0595,-0.0596,-0.064,-0.064,-0.0641,-0.0659,-0.0658,-0.0658,-0.0658,-0.0691,-0.0692,-0.0694,0,0,0,0,0,0,0,0,0,0,0,0,0,-0.0577,-0.0549,-0.0594,-0.061,-0.0612,-0.0639,-0.064,-0.0641,-0.0659,-0.0658,-0.0658,-0.0658,-0.0691,-0.0692,-0.0694,-0.0703,0,0,-0.0698,-0.0699,0,0,0,0,0,0,0,0,-0.0576,-0.0579,-0.0607,-0.0609,-0.0612,-0.0644,-0.0636,-0.0661,-0.0659,-0.064,-0.0658,-0.0658,-0.0675,-0.0678,-0.0686,-0.0705,-0.0706,-0.0698,-0.0699,-0.07,-0.07,0,0,0,0,0,0,0,-0.0574,-0.0577,-0.0611,-0.0608,-0.0611,-0.0624,-0.0628,-0.0641,-0.0657,-0.0642,-0.0643,-0.065,-0.0676,-0.0684,-0.0686,-0.0707,-0.0698,-0.0699,-0.07,-0.0701,-0.0758,-0.0759,0,0,0,0,0,0,-0.0569,-0.0575,-0.061,-0.0613,-0.0594,-0.0625,-0.0629,-0.0633,-0.0657,-0.0661,-0.065,-0.065,-0.0682,-0.0685,-0.0688,-0.0729,-0.07,-0.0701,-0.0702,-0.0758,-0.0759,-0.0759,0,0,0,0,0,0,-0.0567,-0.0571,-0.0608,-0.0596,-0.0602,-0.0626,-0.063,-0.0634,-0.0649,-0.0663,-0.0667,-0.0662,-0.0682,-0.0686,-0.0711,-0.0729,-0.0701,-0.0703,-0.0757,-0.0758,-0.0759,-0.0793,0,0,0,0,0,0,-0.0566,-0.057,-0.0577,-0.0595,-0.0602,-0.063,-0.063,-0.0635,-0.0653,-0.0655,-0.0674,-0.0677,-0.0682,-0.0709,-0.0712,-0.0731,-0.0704,-0.0756,-0.0757,-0.0759,-0.0791,-0.0795,-0.0799,0,0,0,0,0,-0.0564,-0.0574,-0.0577,-0.0582,-0.0609,-0.063,-0.0635,-0.0651,-0.0654,-0.0664,-0.0679,-0.0677,-0.0719,-0.071,-0.0714,-0.0734,-0.0755,-0.0757,-0.0759,-0.0789,-0.0794,-0.0799,0,0,0,0,0,0,-0.0555,-0.0577,-0.0581,-0.0596,-0.0614,-0.0634,-0.0648,-0.0656,-0.0676,-0.068,-0.0688,-0.0693,-0.0722,-0.0721,-0.0711,-0.0753,-0.0736,-0.0738,-0.0758,-0.0763,-0.0766,-0.0774,-0.0705,0,0,0,0,0,-0.0556,-0.0571,-0.0589,-0.0602,-0.0611,-0.063,-0.0642,-0.0653,-0.0672,-0.0681,-0.0696,-0.0711,-0.073,-0.0741,-0.0756,-0.078,-0.0771,-0.0793,-0.0797,-0.08,-0.0808,-0.0814,-0.0819,-0.0765,-0.0765,-0.0765,0,0,-0.0556,-0.057,-0.0578,-0.0602,-0.0616,-0.0635,-0.0637,-0.0659,-0.0683,-0.0681,-0.0717,-0.0727,-0.074,-0.0769,-0.0781,-0.0772,-0.0808,-0.0802,-0.0805,-0.0811,-0.0816,-0.0821,-0.0826,-0.0766,-0.0765,-0.0765,0,0,-0.0561,-0.0575,-0.0588,-0.0605,-0.063,-0.0645,-0.0652,-0.0677,-0.0698,-0.073,-0.0737,-0.0763,-0.0785,-0.0806,-0.0816,-0.085,-0.0829,-0.0846,-0.0873,-0.0878,-0.0883,-0.0887,-0.087,-0.0872,-0.0848,-0.0848,-0.0848,0,-0.056,-0.0578,-0.0596,-0.0612,-0.0628,-0.0649,-0.0666,-0.0694,-0.0726,-0.0742,-0.0745,-0.0791,-0.0808,-0.0845,-0.0862,-0.0862,-0.0846,-0.0855,-0.0883,-0.0887,-0.0891,-0.0873,-0.0875,-0.0849,-0.0849,-0.0849,-0.0849,0,-0.0571,-0.059,-0.06,-0.0628,-0.0648,-0.0668,-0.0702,-0.0728,-0.0752,-0.0773,-0.0816,-0.0844,-0.0866,-0.088,-0.0886,-0.092,-0.0893,-0.0888,-0.0871,-0.0898,-0.0877,-0.0879,-0.0852,-0.0851,-0.0851,-0.085,0,0,-0.055,-0.06,-0.0602,-0.0618,-0.0659,-0.0673,-0.0717,-0.0756,-0.0777,-0.082,-0.0847,-0.0904,-0.0909,-0.0923,-0.0934,-0.0952,-0.0968,-0.0931,-0.0931,-0.0914,-0.0956,-0.0866,-0.0859,-0.0959,-0.096,-0.0961,-0.0927,0,-0.0553,-0.0588,-0.061,-0.0642,-0.0664,-0.0696,-0.0732,-0.0769,-0.0803,-0.0835,-0.0879,-0.0909,-0.0928,-0.0939,-0.0962,-0.0968,-0.0975,-0.0977,-0.0934,-0.0933,-0.0849,-0.0859,-0.0963,-0.0928,-0.0929,-0.0929,-0.0929,0,-0.0546,-0.0577,-0.0613,-0.0655,-0.0665,-0.069,-0.0736,-0.0761,-0.0813,-0.0843,-0.0882,-0.0905,-0.0954,-0.0958,-0.0989,-0.0982,-0.0975,-0.0977,-0.0975,-0.0883,-0.0846,-0.0899,-0.0931,-0.0931,-0.0931,-0.0931,-0.0931,0,-0.052,-0.0569,-0.0601,-0.0617,-0.0673,-0.0696,-0.0715,-0.0764,-0.0778,-0.084,-0.0858,-0.0913,-0.0934,-0.0953,-0.0969,-0.0974,-0.0978,-0.0981,-0.0892,-0.0884,-0.0961,-0.0957,-0.0993,-0.0993,-0.0993,-0.0993,-0.0993,0,-0.0507,-0.0524,-0.0596,-0.0613,-0.0652,-0.0678,-0.0706,-0.0743,-0.0769,-0.0788,-0.0851,-0.0875,-0.0933,-0.0943,-0.0957,-0.092,-0.0966,-0.0895,-0.0873,-0.0973,-0.0972,-0.0961,-0.0957,-0.0992,-0.0992,-0.0992,-0.0993,0,-0.046,-0.0509,-0.0546,-0.0616,-0.0644,-0.0659,-0.0693,-0.0707,-0.0739,-0.0763,-0.0781,-0.0835,-0.0847,-0.0878,-0.0898,-0.0885,-0.0875,-0.0847,-0.0937,-0.092,-0.0779,-0.0778,-0.0744,-0.0741,-0.0738,-0.0736,-0.0734,0,-0.044,-0.0461,-0.0544,-0.0572,-0.0607,-0.0639,-0.0671,-0.0703,-0.0713,-0.0739,-0.075,-0.0761,-0.08,-0.0748,-0.079,-0.0779,-0.0777,-0.0768,-0.0798,-0.0774,-0.0756,-0.0759,-0.0762,-0.0729,-0.0728,-0.0728,-0.0727,0,-0.0401,-0.0432,-0.0462,-0.0537,-0.0586,-0.0614,-0.0652,-0.0662,-0.0693,-0.0721,-0.0701,-0.0692,-0.0685,-0.0691,-0.0671,-0.0678,-0.078,-0.0738,-0.0745,-0.0773,-0.0755,-0.074,-0.0747,-0.0717,-0.0718,-0.0719,-0.072,0,-0.0365,-0.0373,-0.043,-0.0486,-0.0544,-0.0582,-0.0611,-0.0625,-0.063,-0.0662,-0.0651,-0.0664,-0.0677,-0.0635,-0.0632,-0.0611,-0.061,-0.0616,-0.0629,-0.0641,-0.0623,-0.0586,-0.0474,0,0,0,0,0,-0.033,-0.0335,-0.0379,-0.0445,-0.0497,-0.0543,-0.0597,-0.0622,-0.0678,-0.0643,-0.0632,-0.0621,-0.0582,-0.0584,-0.054,-0.0596,-0.0627,-0.0544,-0.0646,-0.0662,-0.0673,-0.0662,0,0,0,0,0,0,-0.0303,-0.0328,-0.0358,-0.0404,-0.0446,-0.0505,-0.0553,-0.0593,-0.0569,-0.0607,-0.0583,-0.0582,-0.0551,-0.0587,-0.0524,-0.0524,-0.0577,-0.0537,-0.0536,-0.0655,-0.0666,-0.0675,-0.0667,0,0,0,0,0]},{"header":{"parameterUnit":"m.s-1","parameterCategory":2,"la1":30.2991,"la2":30.254,"lo1":-89.0895,"lo2":-89.0444,"dy":0.0017,"dx":0.0017,"nx":28,"ny":28,"refTime":"2025-09-19T09:00:00:Z","depth":"4","parameterNumber":3,"parameterNumberName":"V-component_of_CURRENTS"},"data":[0,0,0,0,0,0,0,0,0,0,0,0,0,0,0,0,0,0,0,0,0,0,0,0,0,0,0,0,0,0,0,0,0,0,0,0,0,0,0,0,0,0,0,0,0,0,0,0,0,0,0,0,0,0,0,0,0,0,-0.013,-0.013,0,-0.0136,-0.0136,-0.0137,-0.0123,-0.0122,-0.0122,-0.0121,-0.0099,-0.0099,-0.0099,0,0,0,0,0,0,0,0,0,0,0,0,0,-0.0099,-0.0099,-0.013,-0.013,-0.013,-0.0136,-0.0136,-0.0137,-0.0123,-0.0122,-0.0122,-0.0121,-0.0099,-0.0099,-0.0099,0,0,0,0,0,0,0,0,0,0,0,0,0,-0.011,-0.01,-0.013,-0.0124,-0.0123,-0.0136,-0.0136,-0.0137,-0.0123,-0.0122,-0.0122,-0.0121,-0.0099,-0.0099,-0.0099,-0.0114,0,0,-0.0099,-0.0099,0,0,0,0,0,0,0,0,-0.011,-0.0112,-0.0125,-0.0124,-0.0123,-0.0127,-0.0117,-0.0127,-0.0123,-0.0124,-0.0121,-0.0121,-0.0106,-0.0105,-0.011,-0.0113,-0.0112,-0.0099,-0.0099,-0.0099,-0.0099,0,0,0,0,0,0,0,-0.0109,-0.0111,-0.0134,-0.0125,-0.0124,-0.0117,-0.0118,-0.0119,-0.012,-0.0124,-0.0123,-0.0122,-0.0105,-0.011,-0.0109,-0.0112,-0.0099,-0.0099,-0.0099,-0.0098,-0.0104,-0.0104,0,0,0,0,0,0,-0.0108,-0.0111,-0.0134,-0.0134,-0.0113,-0.0118,-0.0119,-0.0128,-0.012,-0.0118,-0.0123,-0.0121,-0.0111,-0.011,-0.0108,-0.0111,-0.0099,-0.0098,-0.0098,-0.0104,-0.0104,-0.0104,0,0,0,0,0,0,-0.0107,-0.011,-0.0133,-0.0121,-0.0123,-0.0119,-0.0129,-0.0128,-0.013,-0.0119,-0.0117,-0.0124,-0.011,-0.0109,-0.0107,-0.011,-0.0098,-0.0098,-0.0103,-0.0104,-0.0104,-0.0125,0,0,0,0,0,0,-0.0106,-0.011,-0.0119,-0.0121,-0.0124,-0.0145,-0.013,-0.0129,-0.013,-0.0128,-0.012,-0.0117,-0.0109,-0.0107,-0.0107,-0.011,-0.0098,-0.0103,-0.0104,-0.0104,-0.0124,-0.0126,-0.0127,0,0,0,0,0,-0.0105,-0.0123,-0.0119,-0.0122,-0.0135,-0.0146,-0.0147,-0.0142,-0.0131,-0.0139,-0.0127,-0.0118,-0.0109,-0.0108,-0.0107,-0.011,-0.0103,-0.0103,-0.0104,-0.0123,-0.0125,-0.0127,0,0,0,0,0,0,-0.0118,-0.0123,-0.0119,-0.0139,-0.0142,-0.0143,-0.015,-0.0144,-0.0143,-0.0138,-0.0124,-0.0121,-0.0119,-0.0114,-0.0112,-0.0112,-0.0103,-0.0104,-0.0118,-0.012,-0.0122,-0.0124,-0.0098,0,0,0,0,0,-0.0124,-0.0136,-0.0138,-0.0154,-0.0155,-0.0152,-0.0155,-0.0151,-0.0149,-0.0147,-0.014,-0.013,-0.0123,-0.0121,-0.0116,-0.0121,-0.0088,-0.0121,-0.0123,-0.0124,-0.0126,-0.0077,-0.0074,-0.0106,-0.0106,-0.0106,0,0,-0.0133,-0.0137,-0.0145,-0.0156,-0.0157,-0.017,-0.0152,-0.016,-0.0167,-0.0145,-0.0153,-0.0138,-0.0125,-0.0127,-0.0125,-0.0122,-0.0096,-0.0125,-0.0126,-0.0127,-0.0077,-0.0074,-0.0071,-0.0106,-0.0106,-0.0106,0,0,-0.0155,-0.0161,-0.0176,-0.018,-0.0183,-0.0184,-0.0186,-0.0187,-0.0183,-0.019,-0.0169,-0.0154,-0.0156,-0.014,-0.0133,-0.0143,-0.0106,-0.0144,-0.0157,-0.0109,-0.0106,-0.0103,-0.0046,-0.0038,-0.0146,-0.0146,-0.0146,0,-0.0162,-0.0184,-0.0182,-0.0195,-0.0203,-0.0192,-0.0209,-0.0208,-0.0208,-0.0204,-0.0195,-0.0175,-0.0161,-0.0149,-0.015,-0.0147,-0.011,-0.0149,-0.011,-0.0106,-0.0103,-0.0046,-0.0036,-0.0147,-0.0147,-0.0147,-0.0147,0,-0.0194,-0.0209,-0.0219,-0.0233,-0.0244,-0.0257,-0.0255,-0.0258,-0.0251,-0.0244,-0.023,-0.0205,-0.0192,-0.0182,-0.017,-0.0141,-0.012,-0.0116,-0.0103,-0.01,-0.0041,-0.003,-0.0148,-0.0148,-0.0148,-0.0148,0,0,-0.0207,-0.0235,-0.0238,-0.0249,-0.0264,-0.0276,-0.0289,-0.0295,-0.0298,-0.0282,-0.0279,-0.0251,-0.0228,-0.0218,-0.0192,-0.0149,-0.0084,-0.0124,-0.0121,-0.0065,0.0033,0.0026,0.0038,-0.0071,-0.007,-0.0069,0.0068,0,-0.0227,-0.0261,-0.0274,-0.0307,-0.0322,-0.0324,-0.034,-0.0342,-0.0334,-0.0328,-0.0286,-0.0274,-0.0245,-0.0234,-0.0187,-0.012,-0.006,-0.0121,0.0019,0.0023,0.002,0.0048,-0.0064,0.0076,0.0079,0.008,0.0082,0,-0.0251,-0.0268,-0.0306,-0.0338,-0.0346,-0.0369,-0.0388,-0.0399,-0.0385,-0.0376,-0.0349,-0.0319,-0.0265,-0.0237,-0.0106,-0.0147,-0.0056,0.0008,0.0015,0.0022,0.0036,0.0071,0.0101,0.01,0.0098,0.0097,0.0096,0,-0.0254,-0.0292,-0.0324,-0.0334,-0.0369,-0.0387,-0.0406,-0.041,-0.0414,-0.0401,-0.039,-0.0336,-0.0297,-0.0194,-0.0073,-0.0083,0.0084,0.0086,0.0176,0.0177,0.0151,0.0146,0.0204,0.0204,0.0203,0.0203,0.0203,0,-0.0268,-0.0292,-0.0327,-0.0342,-0.0377,-0.04,-0.0427,-0.0438,-0.0441,-0.0429,-0.041,-0.0372,-0.0281,-0.0183,-0.0072,0.0079,0.009,0.0185,0.0213,0.014,0.0132,0.016,0.0153,0.0208,0.0207,0.0206,0.0205,0,-0.0269,-0.0292,-0.0325,-0.0366,-0.0379,-0.0404,-0.0441,-0.0452,-0.0457,-0.0438,-0.0433,-0.0386,-0.0266,-0.0159,0.0013,0.0085,0.0224,0.0286,0.0208,0.0228,0.0291,0.0281,0.0396,0.0397,0.0397,0.0398,0.0399,0,-0.0275,-0.0292,-0.0336,-0.0358,-0.0379,-0.0413,-0.0431,-0.0454,-0.0452,-0.0424,-0.0402,-0.0317,-0.0261,-0.0017,0.0068,0.026,0.029,0.0357,0.0317,0.0295,0.0311,0.03,0.029,0.04,0.04,0.04,0.0401,0,-0.0283,-0.03,-0.0329,-0.037,-0.0396,-0.0418,-0.0438,-0.0432,-0.0432,-0.0431,-0.0329,-0.0237,-0.011,0.0017,0.0151,0.029,0.0295,0.0366,0.0365,0.0329,0.0302,0.0314,0.0303,0.0403,0.0403,0.0403,0.0402,0,-0.0289,-0.031,-0.0351,-0.0387,-0.0417,-0.0423,-0.0427,-0.0395,-0.0385,-0.0333,-0.0289,-0.0175,-0.0116,0.0037,0.0168,0.0278,0.0308,0.0347,0.0348,0.0346,0.0267,0.0221,0.0334,0,0,0,0,0,-0.0297,-0.033,-0.0368,-0.0409,-0.0436,-0.0454,-0.0437,-0.0429,-0.04,-0.0307,-0.0294,-0.0162,0.0008,0.0062,0.0182,0.0152,0.0293,0.029,0.033,0.0418,0.0415,0.0327,0,0,0,0,0,0,-0.0309,-0.0349,-0.0373,-0.0422,-0.0453,-0.0476,-0.0461,-0.0435,-0.0368,-0.0318,-0.0216,-0.0154,0.001,-0.0063,0.0172,0.0198,0.0239,0.0367,0.0369,0.042,0.0417,0.0415,0.0323,0,0,0,0,0]}]]